Location: Songkhla
(7.2000°N, 100.6000°E)
Time: 15:37:33
(UTC+07:00)

JAISAT 1 - All Passes

Search period start: 14 April 2024 00:00
Search period end: 24 April 2024 00:00
Orbit: 373 x 375 km, 97.7° (Epoch: 13 April)

Date Brightness Start Highest point End Pass type
(mag) Time Alt. Az. Time Alt. Az. Time Alt. Az.
14 Apr - 05:48:35 10° NNE 05:51:27 49° E 05:54:18 10° S visible
14 Apr - 17:23:46 10° SE 17:26:04 21° ENE 17:28:23 10° NNE daylight
15 Apr - 06:21:43 10° NNW 06:24:20 29° WNW 06:26:56 10° SW daylight
15 Apr - 17:55:54 10° S 17:58:48 75° WSW 18:01:44 10° NNW daylight
16 Apr - 05:24:13 10° ENE 05:26:00 15° E 05:27:45 10° SE visible
16 Apr - 18:29:23 10° SW 18:31:18 16° W 18:33:12 10° WNW daylight
17 Apr - 05:55:26 10° NNE 05:58:20 67° ESE 06:01:13 10° S daylight
17 Apr - 17:30:03 10° SE 17:32:34 26° ENE 17:35:04 10° NNE daylight
18 Apr - 06:27:56 10° NNW 06:30:20 24° WNW 06:32:45 10° SW daylight
18 Apr - 18:01:35 10° S 18:04:28 58° W 18:07:19 10° NNW daylight
19 Apr - 05:29:11 10° NE 05:31:13 17° E 05:33:14 10° SE visible
19 Apr - 18:34:29 10° SW 18:36:04 14° W 18:37:39 10° WNW daylight
20 Apr - 05:59:47 10° NNE 06:02:41 80° E 06:05:35 10° S daylight
20 Apr - 17:33:57 10° SE 17:36:32 29° ENE 17:39:06 10° NNE daylight
21 Apr - 06:31:32 10° NNW 06:33:50 21° WNW 06:36:08 10° SW daylight
21 Apr - 18:04:44 10° S 18:07:34 52° W 18:10:23 10° NNW daylight
22 Apr - 05:31:48 10° NE 05:33:53 18° E 05:36:00 10° SSE visible
22 Apr - 18:36:53 10° SW 18:38:19 13° W 18:39:46 10° WNW daylight
23 Apr - 06:01:38 10° NNE 06:04:31 82° ESE 06:07:24 10° S daylight
23 Apr - 17:35:25 10° SE 17:37:58 29° ENE 17:40:31 10° NNE daylight
